Location: Bailleul
(50.3375°N, 2.8513°E)
Time: 08:52:21
(UTC+00:00)

Cosmos 1867 - Pass Details

Date: 16 June 2021
Orbit: 773 x 803 km, 65.0° (Epoch: 03 August)

Event Time Altitude Azimuth Distance (km) Brightness Sun altitude
Rises 21:39:00 0° 320° (NW) 3,321 8.8 -10.8°
Reaches altitude 10° 21:41:31 10° 325° (NW) 2,389 7.6 -11.0°
Maximum altitude 21:46:52 50° 41° (NE) 1,018 4.3 -11.5°
Drops below altitude 10° 21:52:12 10° 117° (ESE) 2,376 5.6 -11.9°
Enters shadow 21:52:15 10° 117° (ESE) 2,397 5.6 -11.9°
